星链-6071 (STARLINK-6071 )

导读 | 星芒AI

STARLINK-6071 是 SpaceX 星链计划中的一颗低轨通信卫星,属于第 61 批部署的星链卫星群。该卫星于 2023 年发射,旨在为全球用户提供高速互联网服务。它运行在约 550 公里的轨道高度,采用先进的通信技术,支持宽带数据传输。星链项目通过部署大量卫星,构建覆盖全球的卫星互联网网络,尤其服务于偏远地区。STARLINK-6071 的加入进一步增强了星链系统的覆盖能力与稳定性。

基本信息
目录编号:
56132
目录名称:
STARLINK-6071
国际标识:
2023-046AS
轨道中心:
EARTH
卫星名称:
星链-6071
卫星全名:
星链-6071 (STARLINK-6071 )
卫星状态:
在轨 (已飞行998 天)
发射日期:
2023-03-29 UTC
国别 :
美国 (US)
星等 :
--
轨道信息
数据来源 国际轨道数据 AOE轨道数据
星历时间 2025-12-21T15:59:30+0800
9小时前
查看轨道信息
2025-12-15T18:00:00+0800
6天前
查看轨道信息
半长轴 6937.226km 6937.191km
偏心率 0.0001149 0.0000016
轨道倾角 43.003° 42.996°
近地点辐角 268.777° 153.558°
升交点赤经 211.862° 244.011°
平近点角 91.294° 207.622°
近地点 558.291km 559.044km
远地点 559.887km 559.068km
周期 95.838分钟 95.837分钟
每日圈数 15.025332 15.025443
详细信息
固有亮度:
5
最大亮度:
2.5
卫星平台:
Starlink v1.5
覆盖范围:
全球
运营商:
太空探索技术公司
运营商所在国:
美国
制造商(研发单位):
太空探索技术公司
制造商所在国:
美国
使用方式:
暂无
卫星简介
星链(Starlink)计划是由太空探索技术公司(SpaceX)提出的一个巨型低轨卫星互联网星座项目,计划在2019年至2024年间在太空搭建由约1.2万颗卫星组成的“星链”网络,其中1584颗将部署在地球上空550千米处的近地轨道,并从2020年开始工作。该卫星仍在工作。
2D轨道图
3D轨道图
轨道高度分析图
轨道倾角分析图
轨道综合分析图
查看轨道综合分析图